Location: Newark
(49.5647°N, 8.2922°E)
Time: 04:58:48
(UTC+00:00)

Transit 2A - Pass Details

Date: 25 February 2020
Orbit: 597 x 962 km, 66.7° (Epoch: 07 April)

Event Time Altitude Azimuth Distance (km) Brightness Sun altitude
Rises 13:58:03 0° 262° (W) 2,841 9.6 24.0°
Reaches altitude 10° 14:00:45 10° 280° (W) 1,959 8.6 23.7°
Maximum altitude 14:04:02 20° 328° (NNW) 1,448 7.4 23.4°
Drops below altitude 10° 14:07:26 10° 17° (NNE) 2,057 7.8 23.0°
Sets 14:10:23 0° 34° (NE) 3,031 8.5 22.7°
